Terminal Aerodrome Forecast
Issued by NWS Omaha/Valley, NE

Home | Current Version | Previous Version | Graphics & Text | Print | Product List | Glossary On
Versions: 1 2 3 4 5 6 7 8 9 10 11 12 13 14 15 16 17 18 19 20 21 22 23 24 25 26 27 28 29 30 31 32 33 34 35 36 37 38 39 40
000
FTUS43 KOAX 271608 AAC
TAFOFK
TAF AMD
KOFK 271608Z 2716/2812 13006KT 6SM BR SCT009 BKN015
     FM271700 14011KT P6SM FEW025 SCT150 BKN250
     FM271900 15014G22KT P6SM SCT150=

USA.gov is the U.S. government's official web portal to all federal, state and local government web resources and services.